TimeAKDT,TemperatureF,Dew PointF,Humidity,Sea Level PressureIn,VisibilityMPH,Wind Direction,Wind SpeedMPH,Gust SpeedMPH,PrecipitationIn,Events,Conditions,WindDirDegrees,DateUTC
12:53 AM,53.1,51.1,93,29.79,10.0,SE,4.6,-,N/A,,Mostly Cloudy,130,2013-09-17 08:53:00
1:53 AM,55.0,51.1,86,29.79,10.0,SE,5.8,-,N/A,,Overcast,140,2013-09-17 09:53:00
2:53 AM,55.0,52.0,89,29.79,10.0,SE,6.9,-,N/A,,Mostly Cloudy,130,2013-09-17 10:53:00
3:53 AM,55.0,51.1,86,29.79,10.0,SE,6.9,-,N/A,,Mostly Cloudy,140,2013-09-17 11:53:00
4:53 AM,54.0,51.1,90,29.78,10.0,SE,5.8,-,N/A,,Clear,130,2013-09-17 12:53:00
5:53 AM,54.0,52.0,93,29.78,10.0,SE,5.8,-,N/A,,Overcast,140,2013-09-17 13:53:00
6:17 AM,55.4,51.8,88,29.77,10.0,SE,8.1,-,N/A,,Overcast,130,2013-09-17 14:17:00
6:29 AM,55.4,51.8,88,29.77,10.0,SE,11.5,-,N/A,,Overcast,130,2013-09-17 14:29:00
6:53 AM,55.0,53.1,93,29.78,10.0,SE,9.2,-,0.00,Rain,Light Rain,130,2013-09-17 14:53:00
7:53 AM,55.0,54.0,96,29.78,10.0,SSE,10.4,-,0.00,,Overcast,150,2013-09-17 15:53:00
8:32 AM,55.4,51.8,88,29.78,10.0,SSE,6.9,-,N/A,,Overcast,160,2013-09-17 16:32:00
8:53 AM,54.0,52.0,93,29.79,9.0,SE,9.2,19.6,0.00,Rain,Light Rain,140,2013-09-17 16:53:00
9:42 AM,55.4,53.6,94,29.79,10.0,SE,10.4,-,0.00,,Overcast,130,2013-09-17 17:42:00
9:53 AM,55.0,53.1,93,29.80,10.0,SE,6.9,-,0.00,,Overcast,130,2013-09-17 17:53:00
10:25 AM,55.4,53.6,94,29.79,10.0,SE,8.1,-,0.02,,Overcast,130,2013-09-17 18:25:00
10:51 AM,55.4,53.6,94,29.79,10.0,SE,6.9,-,0.02,,Overcast,140,2013-09-17 18:51:00
10:53 AM,55.9,54.0,93,29.80,10.0,SSE,5.8,-,0.02,,Overcast,150,2013-09-17 18:53:00
11:53 AM,57.0,54.0,89,29.80,10.0,SSE,6.9,-,N/A,,Mostly Cloudy,150,2013-09-17 19:53:00
12:03 PM,57.2,53.6,88,29.79,10.0,SSE,8.1,-,N/A,,Mostly Cloudy,160,2013-09-17 20:03:00
12:26 PM,57.2,53.6,88,29.79,10.0,SSE,9.2,-,N/A,,Mostly Cloudy,150,2013-09-17 20:26:00
12:53 PM,57.9,53.1,84,29.80,10.0,SSE,11.5,-,N/A,,Clear,150,2013-09-17 20:53:00
1:53 PM,57.9,52.0,81,29.80,10.0,SSE,9.2,-,N/A,,Mostly Cloudy,150,2013-09-17 21:53:00
2:53 PM,57.9,52.0,81,29.80,10.0,SSE,10.4,-,N/A,,Partly Cloudy,150,2013-09-17 22:53:00
3:53 PM,59.0,50.0,72,29.79,10.0,SSE,8.1,-,N/A,,Clear,150,2013-09-17 23:53:00
4:53 PM,57.9,48.9,72,29.79,10.0,SE,6.9,-,N/A,,Mostly Cloudy,140,2013-09-18 00:53:00
5:53 PM,57.0,53.1,87,29.79,10.0,SSE,8.1,-,0.00,Rain,Light Rain,150,2013-09-18 01:53:00
6:27 PM,55.4,53.6,94,29.79,9.0,Variable,5.8,-,0.00,Rain,Light Rain,0,2013-09-18 02:27:00
6:36 PM,53.6,50.0,88,29.79,6.0,Variable,4.6,-,0.01,Rain,Rain,0,2013-09-18 02:36:00
6:45 PM,51.8,50.0,94,29.79,4.0,SSW,6.9,-,0.04,Rain,Heavy Rain,200,2013-09-18 02:45:00
6:53 PM,52.0,50.0,93,29.80,4.0,South,4.6,-,0.08,Rain,Rain,190,2013-09-18 02:53:00
7:53 PM,52.0,51.1,97,29.81,9.0,ESE,3.5,-,0.10,Rain,Light Rain,110,2013-09-18 03:53:00
8:42 PM,53.6,51.8,94,29.81,9.0,SE,4.6,-,0.05,Rain,Light Rain,130,2013-09-18 04:42:00
8:51 PM,53.6,51.8,94,29.81,10.0,SE,5.8,-,0.05,Rain,Light Rain,130,2013-09-18 04:51:00
8:53 PM,53.1,51.1,93,29.82,10.0,SE,5.8,-,0.05,Rain,Light Rain,130,2013-09-18 04:53:00
9:53 PM,53.1,51.1,93,29.82,10.0,SE,4.6,-,0.00,,Overcast,130,2013-09-18 05:53:00
10:07 PM,53.6,51.8,94,29.82,10.0,SSE,4.6,-,N/A,,Overcast,150,2013-09-18 06:07:00
10:53 PM,53.1,51.1,93,29.82,10.0,SE,5.8,-,N/A,,Overcast,130,2013-09-18 06:53:00
11:51 PM,53.6,51.8,94,29.83,10.0,SE,3.5,-,N/A,,Mostly Cloudy,130,2013-09-18 07:51:00
11:53 PM,54.0,52.0,93,29.83,10.0,SE,3.5,-,N/A,,Mostly Cloudy,130,2013-09-18 07:53:00